{"data":{"norad_id":55355,"intl_designator":"2023-013AA","name":"STARLINK-5647","alt_names":[],"object_type":"PAYLOAD","status":"ACTIVE","operator":null,"country":"US","launch_date":"2023-01-26","launch_site_code":"AFETR","launch_vehicle":null,"mission":null,"orbit_class":"UNKNOWN","rcs_meters":null,"size_class":null,"mass_kg":null,"dimensions":null,"purposes":["comms"],"wikipedia_slug":null,"has_3d_model":false,"image_url":null,"decayed_at":null,"tle_current":{"epoch":"2026-09-20T12:55:46.354944Z","epoch_age_seconds":93280,"freshness":"FRESH","line1":"1 55355U 23013AA  26263.53873096  .00000329  00000+0  21491-4 0  9996","line2":"2 55355  43.0015 282.9364 0001194 265.5595  94.5120 15.27577803201463","mean_motion":15.27577803,"eccentricity":0.0001194,"inclination_deg":43.0015,"raan_deg":282.9364,"arg_perigee_deg":265.5595,"mean_anomaly_deg":94.512,"bstar":2.1491e-5,"rev_number":20146,"period_min":94.26688429041,"perigee_km":482.23644825055,"apogee_km":483.87490106126,"semimajor_km":6861.1926746559,"source":"CELESTRAK","updated_at":"2026-09-21T09:00:33.184180Z"}}}